| time (UTC) | temp C | wind direction | speed KPH | gust KPH | rain 1hr cm | rain 24hr cm | rain mn cm | humidity % | barometer mb |
| 20260502183308 | 10 | 87 | 1.6 | 1.6 | 0.00 | 0.00 | 0.00 | 65 | 4102.1 |
| 20260502182803 | 10 | 88 | 1.6 | 1.6 | 0.00 | 0.00 | 0.00 | 65 | 4102.1 |
| 20260502182259 | 10 | 86 | 1.6 | 1.6 | 0.00 | 0.00 | 0.00 | 64 | 4102.1 |
| 20260502181756 | 10 | 91 | 1.6 | 1.6 | 0.00 | 0.00 | 0.00 | 65 | 4102.1 |
| 20260502181255 | 10 | 93 | 1.6 | 3.2 | 0.00 | 0.00 | 0.00 | 64 | 4102.1 |
| 20260502180752 | 10 | 90 | 0.0 | 1.6 | 0.00 | 0.00 | 0.00 | 66 | 4102.4 |
| 20260502180249 | 9 | 100 | 1.6 | 1.6 | 0.00 | 0.00 | 0.00 | 66 | 4102.4 |
| 20260502170214 | 8 | 111 | 1.6 | 1.6 | 0.00 | 0.00 | 0.00 | 73 | 4102.7 |
| 20260502164201 | 8 | 72 | 1.6 | 1.6 | 0.00 | 0.00 | 0.00 | 71 | 4102.7 |
| 20260502163656 | 8 | 81 | 1.6 | 1.6 | 0.00 | 0.00 | 0.00 | 72 | 4102.7 |
| 20260502163153 | 8 | 74 | 0.0 | 1.6 | 0.00 | 0.00 | 0.00 | 74 | 4102.7 |
| 20260502162650 | 8 | 74 | 1.6 | 1.6 | 0.00 | 0.00 | 0.00 | 73 | 4103.1 |
| 20260502162147 | 8 | 65 | 0.0 | 1.6 | 0.00 | 0.00 | 0.00 | 74 | 4103.1 |
| 20260502161644 | 8 | 102 | 0.0 | 1.6 | 0.00 | 0.00 | 0.00 | 74 | 4103.1 |
| 20260502161141 | 8 | 98 | 1.6 | 3.2 | 0.00 | 0.00 | 0.00 | 79 | 4103.1 |
| 20260502160639 | 8 | 131 | 1.6 | 1.6 | 0.00 | 0.00 | 0.00 | 81 | 4103.1 |
| 20260502160138 | 7 | 138 | 0.0 | 1.6 | 0.00 | 0.00 | 0.00 | 83 | 4103.1 |
| 20260502152051 | 6 | 108 | 0.0 | 1.6 | 0.00 | 0.00 | 0.00 | 83 | 4103.1 |
| 20260502151548 | 6 | 189 | 1.6 | 1.6 | 0.00 | 0.00 | 0.00 | 82 | 4103.4 |
| 20260502151046 | 6 | 95 | 1.6 | 3.2 | 0.00 | 0.00 | 0.00 | 83 | 4103.4 |
| 20260502150543 | 6 | 30 | 0.0 | 1.6 | 0.00 | 0.00 | 0.00 | 85 | 4103.4 |
| 20260502130428 | 3 | 92 | 0.0 | 1.6 | 0.00 | 0.00 | 0.00 | 88 | 4103.8 |
| 20260502123411 | 2 | 90 | 0.0 | 1.6 | 0.00 | 0.00 | 0.00 | 92 | 4103.8 |
| 20260502122908 | 2 | 93 | 0.0 | 0.0 | 0.00 | 0.00 | 0.00 | 91 | 4103.8 |
| 20260502122404 | 2 | 93 | 0.0 | 1.6 | 0.00 | 0.00 | 0.00 | 91 | 4103.8 |
| 20260502121902 | 2 | 92 | 0.0 | 0.0 | 0.00 | 0.00 | 0.00 | 92 | 4103.8 |
| 20260502121359 | 2 | 89 | 1.6 | 1.6 | 0.00 | 0.00 | 0.00 | 92 | 4103.8 |
| 20260502120857 | 2 | 91 | 0.0 | 0.0 | 0.00 | 0.00 | 0.00 | 92 | 4103.8 |
| 20260502120353 | 1 | 90 | 1.6 | 3.2 | 0.00 | 0.00 | 0.00 | 92 | 4103.8 |
| 20260502115850 | 1 | 93 | 0.0 | 0.0 | 0.00 | 0.00 | 0.00 | 92 | 4104.1 |
| 20260502115347 | 1 | 95 | 0.0 | 1.6 | 0.00 | 0.00 | 0.00 | 93 | 4103.8 |
| 20260502114843 | 1 | 95 | 1.6 | 1.6 | 0.00 | 0.00 | 0.00 | 92 | 4103.8 |
| 20260502114340 | 1 | 98 | 1.6 | 1.6 | 0.00 | 0.00 | 0.00 | 93 | 4103.8 |
| 20260502113837 | 1 | 120 | 1.6 | 1.6 | 0.00 | 0.00 | 0.00 | 93 | 4103.8 |
| 20260502113335 | 1 | 120 | 0.0 | 1.6 | 0.00 | 0.00 | 0.00 | 93 | 4103.8 |
| 20260502112833 | 1 | 121 | 1.6 | 1.6 | 0.00 | 0.00 | 0.00 | 92 | 4103.8 |
| 20260502112330 | 1 | 122 | 1.6 | 3.2 | 0.00 | 0.00 | 0.00 | 93 | 4103.8 |
| 20260502111828 | 1 | 122 | 1.6 | 1.6 | 0.00 | 0.00 | 0.00 | 93 | 4103.8 |
| 20260502111325 | 1 | 124 | 0.0 | 0.0 | 0.00 | 0.00 | 0.00 | 93 | 4103.8 |
| 20260502110823 | 1 | 125 | 1.6 | 1.6 | 0.00 | 0.00 | 0.00 | 93 | 4103.8 |
| 20260502110320 | 1 | 127 | 0.0 | 1.6 | 0.00 | 0.00 | 0.00 | 92 | 4103.8 |
| 20260502105818 | 1 | 132 | 0.0 | 1.6 | 0.00 | 0.00 | 0.00 | 93 | 4103.8 |
| 20260502105314 | 1 | 134 | 1.6 | 1.6 | 0.00 | 0.00 | 0.00 | 93 | 4103.8 |
| 20260502104812 | 1 | 138 | 0.0 | 0.0 | 0.00 | 0.00 | 0.00 | 93 | 4103.4 |
| 20260502104309 | 1 | 147 | 0.0 | 0.0 | 0.00 | 0.00 | 0.00 | 93 | 4103.8 |
| 20260502103806 | 1 | 152 | 0.0 | 0.0 | 0.00 | 0.00 | 0.00 | 93 | 4103.4 |
| 20260502103303 | 1 | 160 | 1.6 | 1.6 | 0.00 | 0.00 | 0.00 | 92 | 4103.8 |
| 20260502102801 | 1 | 169 | 1.6 | 3.2 | 0.00 | 0.00 | 0.00 | 91 | 4103.4 |
| 20260502102257 | 1 | 240 | 1.6 | 3.2 | 0.00 | 0.00 | 0.00 | 92 | 4103.4 |
| 20260502101755 | 1 | 252 | 1.6 | 3.2 | 0.00 | 0.00 | 0.00 | 94 | 4103.4 |
| 20260502101247 | 1 | 88 | 0.0 | 1.6 | 0.00 | 0.00 | 0.00 | 91 | 4103.8 |
| 20260502100745 | 1 | 89 | 0.0 | 1.6 | 0.00 | 0.00 | 0.00 | 91 | 4103.4 |
| 20260502100244 | 1 | 93 | 1.6 | 3.2 | 0.00 | 0.00 | 0.00 | 91 | 4103.4 |
| 20260502091218 | 0 | 72 | 0.0 | 1.6 | 0.00 | 0.00 | 0.00 | 94 | 4103.4 |
| 20260502090715 | 0 | 69 | 0.0 | 0.0 | 0.00 | 0.00 | 0.00 | 95 | 4103.4 |
| 20260502090212 | 0 | 66 | 0.0 | 0.0 | 0.00 | 0.00 | 0.00 | 95 | 4103.4 |
| 20260502071107 | -1 | 21 | 1.6 | 1.6 | 0.00 | 0.00 | 0.00 | 95 | 4103.1 |
| 20260502070605 | -1 | 29 | 1.6 | 1.6 | 0.00 | 0.00 | 0.00 | 95 | 4103.4 |
| 20260502065601 | -1 | 29 | 0.0 | 0.0 | 0.00 | 0.00 | 0.00 | 95 | 4103.4 |
| 20260502065058 | -1 | 29 | 0.0 | 0.0 | 0.00 | 0.00 | 0.00 | 95 | 4103.4 |
| 20260502064557 | -1 | 29 | 0.0 | 0.0 | 0.00 | 0.00 | 0.00 | 94 | 4103.4 |
| 20260502064054 | -1 | 29 | 0.0 | 0.0 | 0.00 | 0.00 | 0.00 | 94 | 4103.4 |
| 20260502063551 | -1 | 29 | 0.0 | 0.0 | 0.00 | 0.00 | 0.00 | 94 | 4103.4 |
| 20260502063049 | -1 | 29 | 0.0 | 0.0 | 0.00 | 0.00 | 0.00 | 94 | 4103.4 |
| 20260502062546 | -2 | 29 | 0.0 | 0.0 | 0.00 | 0.00 | 0.00 | 94 | 4103.8 |
| 20260502062044 | -2 | 29 | 0.0 | 0.0 | 0.00 | 0.00 | 0.00 | 94 | 4103.4 |
| 20260502061542 | -2 | 29 | 0.0 | 0.0 | 0.00 | 0.00 | 0.00 | 94 | 4103.4 |
| 20260502061039 | -2 | 29 | 1.6 | 1.6 | 0.00 | 0.00 | 0.00 | 94 | 4103.4 |
| 20260502060534 | -2 | 29 | 0.0 | 0.0 | 0.00 | 0.00 | 0.00 | 95 | 4103.4 |
| 20260502060031 | -2 | 29 | 0.0 | 0.0 | 0.00 | 0.00 | 0.00 | 94 | 4103.8 |
| 20260502055528 | -2 | 29 | 0.0 | 0.0 | 0.00 | 0.00 | 0.00 | 94 | 4103.4 |
| 20260502055027 | -1 | 29 | 0.0 | 0.0 | 0.00 | 0.00 | 0.00 | 93 | 4103.8 |
| 20260502054525 | -1 | 29 | 0.0 | 0.0 | 0.00 | 0.00 | 0.00 | 93 | 4103.4 |
| 20260502054022 | -1 | 29 | 0.0 | 0.0 | 0.00 | 0.00 | 0.00 | 92 | 4103.4 |
| 20260502053519 | -1 | 29 | 0.0 | 0.0 | 0.00 | 0.00 | 0.00 | 92 | 4103.4 |
| 20260502053017 | -1 | 29 | 0.0 | 0.0 | 0.00 | 0.00 | 0.00 | 91 | 4103.8 |
| 20260502052515 | -1 | 29 | 0.0 | 0.0 | 0.00 | 0.00 | 0.00 | 91 | 4103.4 |
| 20260502052013 | -1 | 29 | 0.0 | 0.0 | 0.00 | 0.00 | 0.00 | 91 | 4103.8 |
| 20260502051510 | -1 | 29 | 0.0 | 0.0 | 0.00 | 0.00 | 0.00 | 91 | 4103.4 |
| 20260502051008 | -1 | 29 | 0.0 | 0.0 | 0.00 | 0.00 | 0.00 | 91 | 4103.8 |
| 20260502050504 | -1 | 29 | 0.0 | 0.0 | 0.00 | 0.00 | 0.00 | 90 | 4103.4 |
| 20260502050001 | -1 | 29 | 0.0 | 0.0 | 0.00 | 0.00 | 0.00 | 90 | 4103.8 |
| 20260502045457 | -1 | 29 | 0.0 | 0.0 | 0.00 | 0.00 | 0.00 | 89 | 4103.8 |
| 20260502044955 | -1 | 27 | 0.0 | 0.0 | 0.00 | 0.00 | 0.00 | 90 | 4103.8 |
| 20260502044450 | -1 | 27 | 0.0 | 0.0 | 0.00 | 0.00 | 0.00 | 90 | 4103.4 |
| 20260502043948 | -1 | 27 | 0.0 | 0.0 | 0.00 | 0.00 | 0.00 | 89 | 4103.8 |
| 20260502043445 | -1 | 27 | 0.0 | 0.0 | 0.00 | 0.00 | 0.00 | 89 | 4103.8 |
| 20260502042944 | 0 | 27 | 0.0 | 0.0 | 0.00 | 0.00 | 0.00 | 89 | 4103.8 |
| 20260502042442 | 0 | 27 | 0.0 | 0.0 | 0.00 | 0.00 | 0.00 | 89 | 4103.8 |
| 20260502041939 | 0 | 26 | 0.0 | 0.0 | 0.00 | 0.00 | 0.00 | 89 | 4103.8 |
| 20260502041437 | 0 | 23 | 0.0 | 0.0 | 0.00 | 0.00 | 0.00 | 89 | 4103.8 |
| 20260502040933 | 0 | 23 | 0.0 | 0.0 | 0.00 | 0.00 | 0.00 | 89 | 4103.8 |
| 20260502040430 | 0 | 23 | 1.6 | 1.6 | 0.00 | 0.00 | 0.00 | 90 | 4103.8 |
| 20260502035926 | 0 | 23 | 0.0 | 0.0 | 0.00 | 0.03 | 0.03 | 89 | 4103.8 |
| 20260502035423 | 0 | 25 | 0.0 | 0.0 | 0.00 | 0.03 | 0.03 | 89 | 4103.8 |
| 20260502034921 | 0 | 24 | 0.0 | 0.0 | 0.00 | 0.03 | 0.03 | 89 | 4103.8 |
| 20260502034419 | 0 | 25 | 0.0 | 0.0 | 0.00 | 0.03 | 0.03 | 90 | 4103.8 |
| 20260502033917 | 0 | 25 | 0.0 | 0.0 | 0.00 | 0.03 | 0.03 | 91 | 4103.8 |
| 20260502033414 | 0 | 25 | 0.0 | 0.0 | 0.00 | 0.03 | 0.03 | 91 | 4103.8 |
| 20260502032911 | 0 | 25 | 0.0 | 0.0 | 0.00 | 0.03 | 0.03 | 91 | 4103.8 |
| 20260502032408 | 0 | 25 | 0.0 | 0.0 | 0.00 | 0.03 | 0.03 | 90 | 4103.8 |
| 20260502031905 | 0 | 25 | 0.0 | 0.0 | 0.00 | 0.03 | 0.03 | 90 | 4103.8 |
| 20260502031403 | 0 | 25 | 0.0 | 0.0 | 0.00 | 0.03 | 0.03 | 89 | 4103.8 |
| 20260502030901 | 0 | 25 | 0.0 | 0.0 | 0.00 | 0.03 | 0.03 | 89 | 4103.8 |
| 20260502030359 | 0 | 25 | 0.0 | 0.0 | 0.00 | 0.03 | 0.03 | 88 | 4103.8 |
| 20260502025856 | 0 | 25 | 0.0 | 0.0 | 0.00 | 0.03 | 0.03 | 87 | 4103.8 |
| 20260502025353 | 0 | 25 | 0.0 | 0.0 | 0.00 | 0.03 | 0.03 | 87 | 4103.8 |
| 20260502024851 | 0 | 25 | 0.0 | 1.6 | 0.00 | 0.03 | 0.03 | 86 | 4103.8 |
| 20260502024349 | 0 | 25 | 0.0 | 0.0 | 0.00 | 0.03 | 0.03 | 85 | 4103.8 |
| 20260502023847 | 1 | 25 | 0.0 | 0.0 | 0.00 | 0.03 | 0.03 | 85 | 4103.8 |
| 20260502023344 | 1 | 25 | 0.0 | 0.0 | 0.00 | 0.03 | 0.03 | 84 | 4103.8 |
| 20260502022841 | 1 | 25 | 0.0 | 0.0 | 0.00 | 0.03 | 0.03 | 84 | 4103.8 |
| 20260502022338 | 1 | 18 | 0.0 | 1.6 | 0.00 | 0.03 | 0.03 | 83 | 4104.1 |
| 20260502021835 | 1 | 20 | 0.0 | 0.0 | 0.00 | 0.03 | 0.03 | 83 | 4103.8 |
| 20260502021332 | 1 | 23 | 0.0 | 0.0 | 0.00 | 0.03 | 0.03 | 82 | 4104.1 |
| 20260502020829 | 1 | 23 | 0.0 | 0.0 | 0.00 | 0.03 | 0.03 | 82 | 4103.8 |
| 20260502020327 | 1 | 23 | 0.0 | 0.0 | 0.00 | 0.03 | 0.03 | 82 | 4103.8 |
| 20260502015824 | 2 | 23 | 0.0 | 0.0 | 0.00 | 0.03 | 0.03 | 81 | 4103.8 |
| 20260502015321 | 2 | 23 | 1.6 | 1.6 | 0.00 | 0.03 | 0.03 | 80 | 4103.8 |
| 20260502014818 | 2 | 23 | 0.0 | 0.0 | 0.00 | 0.03 | 0.03 | 79 | 4103.8 |
| 20260502014315 | 2 | 23 | 1.6 | 1.6 | 0.00 | 0.03 | 0.03 | 78 | 4103.8 |
| 20260502013811 | 2 | 28 | 0.0 | 0.0 | 0.00 | 0.03 | 0.03 | 79 | 4103.8 |
| 20260502013307 | 2 | 28 | 1.6 | 1.6 | 0.00 | 0.03 | 0.03 | 78 | 4103.8 |
| 20260502012803 | 2 | 28 | 0.0 | 0.0 | 0.00 | 0.03 | 0.03 | 78 | 4103.4 |
| 20260502012301 | 2 | 28 | 0.0 | 1.6 | 0.00 | 0.03 | 0.03 | 77 | 4103.4 |
| 20260502011758 | 2 | 21 | 0.0 | 0.0 | 0.00 | 0.03 | 0.03 | 77 | 4103.4 |
| 20260502011254 | 3 | 21 | 0.0 | 0.0 | 0.00 | 0.03 | 0.03 | 76 | 4103.4 |
| 20260502010752 | 3 | 24 | 0.0 | 0.0 | 0.00 | 0.03 | 0.03 | 75 | 4103.4 |
| 20260502010248 | 3 | 25 | 0.0 | 1.6 | 0.00 | 0.03 | 0.03 | 77 | 4103.1 |
| 20260502005745 | 3 | 24 | 4.8 | 4.8 | 0.00 | 0.03 | 0.03 | 74 | 4103.1 |
| 20260502005243 | 3 | 19 | 0.0 | 1.6 | 0.00 | 0.03 | 0.03 | 75 | 4103.4 |
| 20260502004739 | 3 | 18 | 0.0 | 1.6 | 0.00 | 0.03 | 0.03 | 75 | 4103.1 |
| 20260502004236 | 3 | 19 | 0.0 | 0.0 | 0.00 | 0.03 | 0.03 | 75 | 4103.4 |
| 20260502003734 | 3 | 21 | 0.0 | 1.6 | 0.00 | 0.03 | 0.03 | 77 | 4103.1 |
| 20260502003231 | 3 | 21 | 0.0 | 0.0 | 0.00 | 0.03 | 0.03 | 76 | 4103.1 |
| 20260502002726 | 3 | 20 | 0.0 | 0.0 | 0.00 | 0.03 | 0.03 | 75 | 4103.1 |
| 20260502002224 | 3 | 20 | 0.0 | 0.0 | 0.00 | 0.03 | 0.03 | 75 | 4103.4 |
| 20260502001721 | 3 | 20 | 1.6 | 4.8 | 0.00 | 0.03 | 0.03 | 74 | 4103.1 |
| 20260502001220 | 3 | 22 | 0.0 | 1.6 | 0.00 | 0.03 | 0.03 | 75 | 4103.1 |
| 20260502000717 | 3 | 25 | 4.8 | 4.8 | 0.00 | 0.03 | 0.03 | 73 | 4103.1 |
| 20260502000215 | 3 | 31 | 1.6 | 1.6 | 0.00 | 0.03 | 0.03 | 73 | 4103.1 |
| 20260501235710 | 3 | 25 | 0.0 | 0.0 | 0.00 | 0.03 | 0.03 | 75 | 4103.1 |
| 20260501235206 | 3 | 27 | 0.0 | 0.0 | 0.00 | 0.03 | 0.03 | 74 | 4103.1 |
| 20260501234702 | 3 | 27 | 0.0 | 0.0 | 0.00 | 0.03 | 0.03 | 75 | 4102.7 |
| 20260501234159 | 3 | 24 | 0.0 | 0.0 | 0.00 | 0.03 | 0.03 | 73 | 4103.1 |
| 20260501233657 | 3 | 24 | 0.0 | 0.0 | 0.00 | 0.03 | 0.03 | 72 | 4102.7 |
| 20260501233154 | 4 | 38 | 1.6 | 1.6 | 0.00 | 0.03 | 0.03 | 74 | 4103.1 |
| 20260501232650 | 4 | 39 | 0.0 | 1.6 | 0.00 | 0.03 | 0.03 | 78 | 4103.1 |
| 20260501232148 | 4 | 59 | 0.0 | 1.6 | 0.00 | 0.03 | 0.03 | 74 | 4103.1 |
| 20260501231645 | 4 | 48 | 1.6 | 3.2 | 0.00 | 0.03 | 0.03 | 73 | 4103.1 |
| 20260501231143 | 4 | 66 | 1.6 | 3.2 | 0.00 | 0.03 | 0.03 | 79 | 4102.7 |
| 20260501230641 | 4 | 79 | 1.6 | 1.6 | 0.00 | 0.03 | 0.03 | 80 | 4102.7 |
| 20260501230139 | 4 | 79 | 1.6 | 1.6 | 0.00 | 0.03 | 0.03 | 80 | 4102.7 |
| 20260501225637 | 4 | 80 | 0.0 | 0.0 | 0.00 | 0.03 | 0.03 | 82 | 4102.7 |
| 20260501225133 | 4 | 80 | 1.6 | 1.6 | 0.00 | 0.03 | 0.03 | 84 | 4102.7 |
| 20260501224630 | 4 | 78 | 0.0 | 0.0 | 0.00 | 0.03 | 0.03 | 83 | 4102.7 |
| 20260501224127 | 3 | 78 | 0.0 | 0.0 | 0.00 | 0.03 | 0.03 | 81 | 4102.7 |
| 20260501223623 | 3 | 79 | 1.6 | 3.2 | 0.00 | 0.03 | 0.03 | 80 | 4102.7 |
| 20260501223120 | 3 | 83 | 1.6 | 1.6 | 0.00 | 0.03 | 0.03 | 85 | 4102.4 |
| 20260501222616 | 4 | 91 | 1.6 | 3.2 | 0.00 | 0.03 | 0.03 | 89 | 4102.4 |
| 20260501222113 | 4 | 108 | 1.6 | 1.6 | 0.00 | 0.03 | 0.03 | 90 | 4102.4 |
| 20260501221610 | 3 | 77 | 1.6 | 1.6 | 0.00 | 0.03 | 0.03 | 90 | 4102.7 |
| 20260501221107 | 4 | 71 | 1.6 | 3.2 | 0.00 | 0.03 | 0.03 | 90 | 4102.4 |
| 20260501220605 | 4 | 73 | 1.6 | 1.6 | 0.00 | 0.03 | 0.03 | 91 | 4102.7 |
| 20260501215558 | 4 | 75 | 0.0 | 0.0 | 0.00 | 0.03 | 0.03 | 88 | 4102.7 |
| 20260501215053 | 3 | 75 | 3.2 | 4.8 | 0.00 | 0.03 | 0.03 | 88 | 4102.4 |
| 20260501214549 | 3 | 82 | 0.0 | 0.0 | 0.00 | 0.03 | 0.03 | 86 | 4102.4 |
| 20260501214044 | 4 | 67 | 1.6 | 1.6 | 0.00 | 0.03 | 0.03 | 85 | 4102.4 |
| 20260501213542 | 4 | 111 | 0.0 | 0.0 | 0.00 | 0.03 | 0.03 | 84 | 4102.4 |
| 20260501213038 | 4 | 111 | 0.0 | 0.0 | 0.00 | 0.03 | 0.03 | 83 | 4102.1 |
| 20260501212534 | 5 | 112 | 1.6 | 1.6 | 0.00 | 0.03 | 0.03 | 83 | 4102.1 |
| 20260501212032 | 5 | 114 | 0.0 | 0.0 | 0.00 | 0.03 | 0.03 | 83 | 4102.1 |
| 20260501211528 | 5 | 117 | 0.0 | 0.0 | 0.00 | 0.03 | 0.03 | 81 | 4102.1 |
| 20260501211026 | 5 | 117 | 1.6 | 1.6 | 0.00 | 0.03 | 0.03 | 79 | 4102.1 |
| 20260501210522 | 5 | 117 | 0.0 | 0.0 | 0.00 | 0.03 | 0.03 | 77 | 4102.1 |
| 20260501210019 | 5 | 118 | 0.0 | 1.6 | 0.00 | 0.03 | 0.03 | 79 | 4102.1 |
| 20260501205515 | 5 | 121 | 1.6 | 3.2 | 0.00 | 0.03 | 0.03 | 79 | 4102.1 |
| 20260501205014 | 5 | 122 | 0.0 | 1.6 | 0.00 | 0.03 | 0.03 | 83 | 4102.1 |
| 20260501204509 | 5 | 123 | 1.6 | 1.6 | 0.00 | 0.03 | 0.03 | 80 | 4102.1 |
| 20260501204005 | 5 | 125 | 0.0 | 0.0 | 0.00 | 0.03 | 0.03 | 83 | 4102.1 |
| 20260501203502 | 5 | 129 | 0.0 | 0.0 | 0.00 | 0.03 | 0.03 | 82 | 4102.1 |
| 20260501203000 | 5 | 121 | 0.0 | 1.6 | 0.00 | 0.03 | 0.03 | 82 | 4102.1 |
| 20260501202456 | 5 | 121 | 0.0 | 0.0 | 0.00 | 0.03 | 0.03 | 81 | 4102.1 |
| 20260501201953 | 5 | 121 | 0.0 | 0.0 | 0.00 | 0.03 | 0.03 | 83 | 4102.1 |
| 20260501201450 | 5 | 122 | 0.0 | 0.0 | 0.00 | 0.03 | 0.03 | 81 | 4102.1 |
| 20260501200947 | 5 | 122 | 0.0 | 0.0 | 0.00 | 0.03 | 0.03 | 82 | 4102.1 |
| 20260501200445 | 5 | 123 | 0.0 | 1.6 | 0.00 | 0.03 | 0.03 | 81 | 4102.1 |
| 20260501195941 | 5 | 123 | 0.0 | 1.6 | 0.00 | 0.03 | 0.03 | 82 | 4102.1 |
| 20260501195438 | 5 | 123 | 1.6 | 1.6 | 0.00 | 0.03 | 0.03 | 84 | 4102.1 |
| 20260501194933 | 5 | 124 | 1.6 | 1.6 | 0.00 | 0.03 | 0.03 | 83 | 4102.1 |
| 20260501194429 | 5 | 124 | 0.0 | 0.0 | 0.00 | 0.03 | 0.03 | 84 | 4102.1 |
| 20260501193925 | 5 | 124 | 0.0 | 0.0 | 0.00 | 0.03 | 0.03 | 82 | 4102.1 |
| 20260501193424 | 5 | 127 | 1.6 | 1.6 | 0.00 | 0.03 | 0.03 | 83 | 4102.1 |
| 20260501192921 | 5 | 127 | 0.0 | 0.0 | 0.00 | 0.03 | 0.03 | 82 | 4102.1 |
| 20260501192418 | 5 | 127 | 1.6 | 1.6 | 0.00 | 0.03 | 0.03 | 82 | 4102.1 |
| 20260501191915 | 5 | 127 | 1.6 | 1.6 | 0.00 | 0.03 | 0.03 | 82 | 4102.1 |
| 20260501191413 | 5 | 127 | 1.6 | 1.6 | 0.00 | 0.03 | 0.03 | 85 | 4101.7 |
| 20260501190910 | 5 | 128 | 0.0 | 0.0 | 0.00 | 0.03 | 0.03 | 83 | 4102.1 |
| 20260501190406 | 5 | 135 | 0.0 | 1.6 | 0.00 | 0.03 | 0.03 | 81 | 4102.1 |
| 20260501185900 | 5 | 135 | 0.0 | 0.0 | 0.00 | 0.03 | 0.03 | 81 | 4102.1 |
| 20260501185357 | 5 | 136 | 0.0 | 0.0 | 0.00 | 0.03 | 0.03 | 80 | 4101.7 |
| 20260501184853 | 5 | 137 | 1.6 | 1.6 | 0.00 | 0.03 | 0.03 | 79 | 4102.1 |
| 20260501184349 | 6 | 137 | 0.0 | 1.6 | 0.00 | 0.03 | 0.03 | 79 | 4102.1 |
| 20260501183844 | 6 | 138 | 0.0 | 0.0 | 0.00 | 0.03 | 0.03 | 80 | 4102.1 |